Location: Peterborough
(44.3091°N, 78.3197°W)
Time: 18:09:17
(UTC-04:00)

A-11 Canister half - Pass Details

Date: 26 March 2023
Orbit: 1526 x 1682 km, 47.3° (Epoch: 05 June)

Event Time Altitude Azimuth Distance (km) Brightness Sun altitude
Rises 22:20:45 0° 292° (WNW) 4,865 12.8 -28.7°
Reaches altitude 10° 22:23:56 10° 291° (WNW) 3,857 11.9 -29.1°
Maximum altitude 22:33:41 73° 209° (SSW) 1,643 8.9 -30.5°
Enters shadow 22:35:30 60° 152° (SSE) 1,762 8.9 -30.7°
